Time,TemperatureF,DewpointF,PressureIn,WindDirection,WindDirectionDegrees,WindSpeedMPH,WindSpeedGustMPH,Humidity,HourlyPrecipIn,Conditions,Clouds,dailyrainin,SoftwareType,DateUTC
2013-02-19 00:00:00,-0.3,-7.5,30.19,NNW,338,0.0,0.0,71,0.00,,,0.00,Wunderground v.1.15,2013-02-19 05:00:00,
2013-02-19 00:05:00,-0.4,-7.0,30.18,NNW,338,0.0,0.0,73,0.00,,,0.00,Wunderground v.1.15,2013-02-19 05:05:00,
2013-02-19 00:10:00,-0.3,-6.9,30.18,NNW,338,0.0,0.0,73,0.00,,,0.00,Wunderground v.1.15,2013-02-19 05:10:00,
2013-02-19 00:15:00,-0.5,-7.4,30.18,NNW,338,0.0,0.0,72,0.00,,,0.00,Wunderground v.1.15,2013-02-19 05:15:00,
2013-02-19 00:20:00,-0.5,-6.8,30.17,NNW,338,0.0,0.0,74,0.00,,,0.00,Wunderground v.1.15,2013-02-19 05:20:00,
2013-02-19 00:25:00,-0.5,-7.1,30.18,NNW,338,0.0,3.0,73,0.00,,,0.00,Wunderground v.1.15,2013-02-19 05:25:00,
2013-02-19 00:30:00,-0.6,-7.2,30.18,NNW,338,1.0,1.0,73,0.00,,,0.00,Wunderground v.1.15,2013-02-19 05:30:00,
2013-02-19 00:36:00,-0.6,-7.2,30.18,NNW,338,1.0,1.0,73,0.00,,,0.00,Wunderground v.1.15,2013-02-19 05:36:00,
2013-02-19 00:41:00,-0.9,-7.5,30.18,NNW,338,0.0,0.0,73,0.00,,,0.00,Wunderground v.1.15,2013-02-19 05:41:00,
2013-02-19 00:46:00,-0.9,-7.2,30.18,NNW,338,1.0,1.0,74,0.00,,,0.00,Wunderground v.1.15,2013-02-19 05:46:00,
2013-02-19 00:51:00,-0.9,-6.9,30.19,NNW,338,1.0,1.0,75,0.00,,,0.00,Wunderground v.1.15,2013-02-19 05:51:00,
2013-02-19 00:56:00,-0.9,-7.2,30.18,NNW,338,0.0,1.0,74,0.00,,,0.00,Wunderground v.1.15,2013-02-19 05:56:00,
2013-02-19 01:01:00,-1.0,-7.3,30.18,NNW,338,0.0,0.0,74,0.00,,,0.00,Wunderground v.1.15,2013-02-19 06:01:00,
2013-02-19 01:05:00,-1.0,-7.3,30.18,NNW,338,0.0,1.0,74,0.00,,,0.00,Wunderground v.1.15,2013-02-19 06:05:00,
2013-02-19 01:11:00,-1.0,-7.3,30.18,NNW,338,0.0,1.0,74,0.00,,,0.00,Wunderground v.1.15,2013-02-19 06:11:00,
2013-02-19 01:20:00,-1.2,-7.5,30.18,NNW,338,1.0,1.0,74,0.00,,,0.00,Wunderground v.1.15,2013-02-19 06:20:00,
2013-02-19 01:30:00,-1.2,-7.2,30.19,NNW,338,0.0,0.0,75,0.00,,,0.00,Wunderground v.1.15,2013-02-19 06:30:00,
2013-02-19 01:35:00,-1.2,-7.2,30.19,NNW,338,0.0,0.0,75,0.00,,,0.00,Wunderground v.1.15,2013-02-19 06:35:00,
2013-02-19 01:45:00,-1.2,-7.2,30.19,NNW,338,0.0,0.0,75,0.00,,,0.00,Wunderground v.1.15,2013-02-19 06:45:00,
2013-02-19 01:50:00,-1.2,-7.2,30.19,NNW,338,0.0,0.0,75,0.00,,,0.00,Wunderground v.1.15,2013-02-19 06:50:00,
2013-02-19 01:55:00,-1.0,-6.7,30.19,NNW,338,1.0,1.0,76,0.00,,,0.00,Wunderground v.1.15,2013-02-19 06:55:00,
2013-02-19 02:01:00,-0.9,-6.9,30.19,NNW,338,0.0,0.0,75,0.00,,,0.00,Wunderground v.1.15,2013-02-19 07:01:00,
2013-02-19 02:06:00,-1.1,-7.1,30.20,NNW,338,0.0,0.0,75,0.00,,,0.00,Wunderground v.1.15,2013-02-19 07:06:00,
2013-02-19 02:11:00,-1.1,-7.1,30.20,NNW,338,0.0,0.0,75,0.00,,,0.00,Wunderground v.1.15,2013-02-19 07:11:00,
2013-02-19 02:16:00,-1.1,-6.8,30.20,NNW,338,0.0,0.0,76,0.00,,,0.00,Wunderground v.1.15,2013-02-19 07:16:00,
2013-02-19 02:21:00,-0.9,-6.4,30.20,NNW,338,0.0,0.0,77,0.00,,,0.00,Wunderground v.1.15,2013-02-19 07:21:00,
2013-02-19 02:35:00,0.4,-5.4,30.21,NNW,338,0.0,0.0,76,0.00,,,0.00,Wunderground v.1.15,2013-02-19 07:35:00,
2013-02-19 02:40:00,0.7,-5.1,30.21,NNW,338,0.0,0.0,76,0.00,,,0.00,Wunderground v.1.15,2013-02-19 07:40:00,
2013-02-19 02:50:00,1.8,-4.0,30.21,NNW,338,0.0,0.0,76,0.00,,,0.00,Wunderground v.1.15,2013-02-19 07:50:00,
2013-02-19 02:56:00,2.3,-3.5,30.21,NNW,338,0.0,0.0,76,0.00,,,0.00,Wunderground v.1.15,2013-02-19 07:56:00,
2013-02-19 03:01:00,2.8,-3.1,30.22,NNW,338,0.0,0.0,76,0.00,,,0.00,Wunderground v.1.15,2013-02-19 08:01:00,
2013-02-19 03:05:00,3.3,-2.6,30.21,NNW,338,0.0,0.0,76,0.00,,,0.00,Wunderground v.1.15,2013-02-19 08:05:00,
2013-02-19 03:10:00,3.8,-2.4,30.21,NNW,338,0.0,0.0,75,0.00,,,0.00,Wunderground v.1.15,2013-02-19 08:10:00,
2013-02-19 03:15:00,4.1,-2.1,30.22,NNW,338,0.0,0.0,75,0.00,,,0.00,Wunderground v.1.15,2013-02-19 08:15:00,
2013-02-19 03:20:00,4.5,-2.0,30.21,NNW,338,0.0,0.0,74,0.00,,,0.00,Wunderground v.1.15,2013-02-19 08:20:00,
2013-02-19 03:35:00,5.4,-1.4,30.21,NNW,338,0.0,0.0,73,0.00,,,0.00,Wunderground v.1.15,2013-02-19 08:35:00,
2013-02-19 03:41:00,5.7,-1.1,30.21,NNW,338,0.0,0.0,73,0.00,,,0.00,Wunderground v.1.15,2013-02-19 08:41:00,
2013-02-19 03:46:00,6.0,-1.1,30.21,NNW,338,0.0,0.0,72,0.00,,,0.00,Wunderground v.1.15,2013-02-19 08:46:00,
2013-02-19 03:51:00,6.2,-1.2,30.21,NNW,338,0.0,0.0,71,0.00,,,0.00,Wunderground v.1.15,2013-02-19 08:51:00,
2013-02-19 03:56:00,6.4,-1.3,30.21,NNW,338,0.0,0.0,70,0.00,,,0.00,Wunderground v.1.15,2013-02-19 08:56:00,
2013-02-19 04:00:00,6.6,-1.7,30.21,NNW,338,0.0,0.0,68,0.00,,,0.00,Wunderground v.1.15,2013-02-19 09:00:00,
2013-02-19 04:06:00,6.9,-0.8,30.21,NNW,338,0.0,0.0,70,0.00,,,0.00,Wunderground v.1.15,2013-02-19 09:06:00,
2013-02-19 04:10:00,7.2,-0.8,30.21,NNW,338,0.0,0.0,69,0.00,,,0.00,Wunderground v.1.15,2013-02-19 09:10:00,
2013-02-19 04:15:00,7.3,-1.1,30.21,NNW,338,0.0,0.0,68,0.00,,,0.00,Wunderground v.1.15,2013-02-19 09:15:00,
2013-02-19 04:20:00,7.3,-1.7,30.21,NNW,338,0.0,0.0,66,0.00,,,0.00,Wunderground v.1.15,2013-02-19 09:20:00,
2013-02-19 04:31:00,7.1,-1.6,30.21,NNW,338,0.0,0.0,67,0.00,,,0.00,Wunderground v.1.15,2013-02-19 09:31:00,
2013-02-19 04:35:00,7.3,-1.1,30.21,NNW,338,0.0,0.0,68,0.00,,,0.00,Wunderground v.1.15,2013-02-19 09:35:00,
2013-02-19 04:40:00,7.6,-0.8,30.21,NNW,338,0.0,0.0,68,0.00,,,0.00,Wunderground v.1.15,2013-02-19 09:40:00,
2013-02-19 04:45:00,7.7,-0.7,30.22,NNW,338,0.0,0.0,68,0.00,,,0.00,Wunderground v.1.15,2013-02-19 09:45:00,
2013-02-19 04:50:00,7.8,-0.9,30.21,NNW,338,0.0,0.0,67,0.00,,,0.00,Wunderground v.1.15,2013-02-19 09:50:00,
2013-02-19 04:56:00,8.0,-0.7,30.21,NNW,338,0.0,0.0,67,0.00,,,0.00,Wunderground v.1.15,2013-02-19 09:56:00,
2013-02-19 05:05:00,8.0,-0.7,30.21,NNW,338,0.0,0.0,67,0.00,,,0.00,Wunderground v.1.15,2013-02-19 10:05:00,
2013-02-19 05:10:00,8.1,-0.9,30.20,NNW,338,0.0,0.0,66,0.00,,,0.00,Wunderground v.1.15,2013-02-19 10:10:00,
2013-02-19 05:15:00,8.4,0.0,30.20,NNW,338,0.0,0.0,68,0.00,,,0.00,Wunderground v.1.15,2013-02-19 10:15:00,
2013-02-19 05:31:00,8.2,-0.5,30.19,NNW,338,0.0,0.0,67,0.00,,,0.00,Wunderground v.1.15,2013-02-19 10:31:00,
2013-02-19 05:36:00,8.1,-0.6,30.19,NNW,338,0.0,0.0,67,0.00,,,0.00,Wunderground v.1.15,2013-02-19 10:36:00,
2013-02-19 05:45:00,7.9,-0.5,30.18,NNW,338,1.0,2.0,68,0.00,,,0.00,Wunderground v.1.15,2013-02-19 10:45:00,
2013-02-19 05:51:00,7.6,-1.4,30.18,NNW,338,1.0,1.0,66,0.00,,,0.00,Wunderground v.1.15,2013-02-19 10:51:00,
2013-02-19 05:55:00,7.4,-1.6,30.17,NNW,338,1.0,1.0,66,0.00,,,0.00,Wunderground v.1.15,2013-02-19 10:55:00,
2013-02-19 06:00:00,7.4,-1.6,30.17,NNW,338,1.0,1.0,66,0.00,,,0.00,Wunderground v.1.15,2013-02-19 11:00:00,
2013-02-19 06:06:00,7.5,-1.5,30.17,NNW,338,0.0,1.0,66,0.00,,,0.00,Wunderground v.1.15,2013-02-19 11:06:00,
2013-02-19 06:11:00,7.8,-1.5,30.17,NNW,338,0.0,1.0,65,0.00,,,0.00,Wunderground v.1.15,2013-02-19 11:11:00,
2013-02-19 06:15:00,8.0,-1.3,30.17,NNW,338,0.0,1.0,65,0.00,,,0.00,Wunderground v.1.15,2013-02-19 11:15:00,
2013-02-19 06:20:00,8.2,-0.8,30.17,NNW,338,0.0,0.0,66,0.00,,,0.00,Wunderground v.1.15,2013-02-19 11:20:00,
2013-02-19 06:25:00,8.4,-0.6,30.16,NNW,338,0.0,0.0,66,0.00,,,0.00,Wunderground v.1.15,2013-02-19 11:25:00,
2013-02-19 06:31:00,8.3,-0.7,30.16,NNW,338,0.0,0.0,66,0.00,,,0.00,Wunderground v.1.15,2013-02-19 11:31:00,
2013-02-19 06:36:00,8.2,-0.8,30.16,NNW,338,0.0,0.0,66,0.00,,,0.00,Wunderground v.1.15,2013-02-19 11:36:00,
2013-02-19 06:41:00,8.0,-0.7,30.16,NNW,338,0.0,0.0,67,0.00,,,0.00,Wunderground v.1.15,2013-02-19 11:41:00,
2013-02-19 06:46:00,7.9,-0.8,30.16,NNW,338,0.0,0.0,67,0.00,,,0.00,Wunderground v.1.15,2013-02-19 11:46:00,
2013-02-19 06:50:00,7.9,-0.5,30.16,NNW,338,0.0,0.0,68,0.00,,,0.00,Wunderground v.1.15,2013-02-19 11:50:00,
2013-02-19 07:00:00,7.8,-0.6,30.16,NNW,338,0.0,0.0,68,0.00,,,0.00,Wunderground v.1.15,2013-02-19 12:00:00,
2013-02-19 07:05:00,7.9,-0.2,30.15,NNW,338,0.0,0.0,69,0.00,,,0.00,Wunderground v.1.15,2013-02-19 12:05:00,
2013-02-19 07:10:00,7.9,-0.2,30.15,NNW,338,0.0,0.0,69,0.00,,,0.00,Wunderground v.1.15,2013-02-19 12:10:00,
2013-02-19 07:15:00,7.8,-0.3,30.15,NNW,338,0.0,0.0,69,0.00,,,0.00,Wunderground v.1.15,2013-02-19 12:15:00,
2013-02-19 07:20:00,7.7,-0.4,30.15,NNW,338,0.0,1.0,69,0.00,,,0.00,Wunderground v.1.15,2013-02-19 12:20:00,
2013-02-19 07:35:00,8.8,0.1,30.14,NNW,338,0.0,0.0,67,0.00,,,0.00,Wunderground v.1.15,2013-02-19 12:35:00,
2013-02-19 07:40:00,9.6,0.5,30.14,NNW,338,0.0,0.0,66,0.00,,,0.00,Wunderground v.1.15,2013-02-19 12:40:00,
2013-02-19 07:50:00,10.8,0.7,30.13,NNW,338,0.0,0.0,63,0.00,,,0.00,Wunderground v.1.15,2013-02-19 12:50:00,
2013-02-19 07:56:00,11.4,0.9,30.13,NNW,338,0.0,0.0,62,0.00,,,0.00,Wunderground v.1.15,2013-02-19 12:56:00,
2013-02-19 08:01:00,12.3,1.0,30.13,NNW,338,0.0,1.0,60,0.00,,,0.00,Wunderground v.1.15,2013-02-19 13:01:00,
2013-02-19 08:11:00,12.8,0.4,30.12,NNW,339,1.0,2.0,57,0.00,,,0.00,Wunderground v.1.15,2013-02-19 13:11:00,
2013-02-19 08:15:00,13.0,0.6,30.12,NNW,339,1.0,2.0,57,0.00,,,0.00,Wunderground v.1.15,2013-02-19 13:15:00,
2013-02-19 08:20:00,13.5,0.3,30.12,NNW,339,1.0,1.0,55,0.00,,,0.00,Wunderground v.1.15,2013-02-19 13:20:00,
2013-02-19 08:25:00,13.8,0.6,30.12,NNW,339,1.0,1.0,55,0.00,,,0.00,Wunderground v.1.15,2013-02-19 13:25:00,
2013-02-19 08:30:00,14.3,1.4,30.11,NNW,339,1.0,1.0,56,0.00,,,0.00,Wunderground v.1.15,2013-02-19 13:30:00,
2013-02-19 08:35:00,14.8,1.1,30.11,NNW,339,1.0,2.0,54,0.00,,,0.00,Wunderground v.1.15,2013-02-19 13:35:00,
2013-02-19 08:40:00,15.1,1.4,30.11,NNW,339,1.0,1.0,54,0.00,,,0.00,Wunderground v.1.15,2013-02-19 13:40:00,
2013-02-19 08:46:00,15.9,1.8,30.11,NNW,339,1.0,1.0,53,0.00,,,0.00,Wunderground v.1.15,2013-02-19 13:46:00,
2013-02-19 08:51:00,17.0,2.4,30.10,NNW,339,1.0,1.0,52,0.00,,,0.00,Wunderground v.1.15,2013-02-19 13:51:00,
2013-02-19 08:55:00,18.1,3.4,30.10,NNW,339,0.0,1.0,52,0.00,,,0.00,Wunderground v.1.15,2013-02-19 13:55:00,
2013-02-19 09:01:00,19.5,3.4,30.10,NNW,339,0.0,0.0,49,0.00,,,0.00,Wunderground v.1.15,2013-02-19 14:01:00,
2013-02-19 09:05:00,20.5,3.0,30.10,NNW,339,0.0,0.0,46,0.00,,,0.00,Wunderground v.1.15,2013-02-19 14:05:00,
2013-02-19 09:11:00,21.3,2.2,30.09,ENE,78,1.0,3.0,43,0.00,,,0.00,Wunderground v.1.15,2013-02-19 14:11:00,
2013-02-19 09:20:00,20.7,2.7,30.09,ENE,76,3.0,3.0,45,0.00,,,0.00,Wunderground v.1.15,2013-02-19 14:20:00,
2013-02-19 09:30:00,20.8,2.3,30.09,ENE,57,1.0,2.0,44,0.00,,,0.00,Wunderground v.1.15,2013-02-19 14:30:00,
2013-02-19 09:40:00,20.7,0.7,30.09,South,178,2.0,4.0,41,0.00,,,0.00,Wunderground v.1.15,2013-02-19 14:40:00,
2013-02-19 09:45:00,21.3,1.2,30.09,ESE,105,3.0,4.0,41,0.00,,,0.00,Wunderground v.1.15,2013-02-19 14:45:00,
2013-02-19 09:50:00,21.6,-1.9,30.09,SE,132,5.0,5.0,35,0.00,,,0.00,Wunderground v.1.15,2013-02-19 14:50:00,
2013-02-19 09:55:00,22.2,-2.0,30.09,ESE,121,6.0,8.0,34,0.00,,,0.00,Wunderground v.1.15,2013-02-19 14:55:00,
2013-02-19 10:00:00,22.5,-3.0,30.08,SE,130,6.0,6.0,32,0.00,,,0.00,Wunderground v.1.15,2013-02-19 15:00:00,
2013-02-19 10:06:00,22.7,-2.1,30.08,SE,146,6.0,6.0,33,0.00,,,0.00,Wunderground v.1.15,2013-02-19 15:06:00,
2013-02-19 10:16:00,23.0,-2.5,30.08,SE,130,6.0,6.0,32,0.00,,,0.00,Wunderground v.1.15,2013-02-19 15:16:00,
2013-02-19 10:21:00,23.1,-2.4,30.07,ESE,121,6.0,6.0,32,0.00,,,0.00,Wunderground v.1.15,2013-02-19 15:21:00,
2013-02-19 10:36:00,23.7,-1.3,30.06,ESE,109,6.0,6.0,33,0.00,,,0.00,Wunderground v.1.15,2013-02-19 15:36:00,
2013-02-19 10:46:00,25.0,1.2,30.05,SE,131,5.0,6.0,35,0.00,,,0.00,Wunderground v.1.15,2013-02-19 15:46:00,
2013-02-19 10:51:00,25.6,-0.9,30.04,SE,142,5.0,5.0,31,0.00,,,0.00,Wunderground v.1.15,2013-02-19 15:51:00,
2013-02-19 10:56:00,26.1,-1.2,30.04,SE,136,4.0,6.0,30,0.00,,,0.00,Wunderground v.1.15,2013-02-19 15:56:00,
2013-02-19 11:00:00,26.5,-0.8,30.03,ESE,123,5.0,8.0,30,0.00,,,0.00,Wunderground v.1.15,2013-02-19 16:00:00,
2013-02-19 11:10:00,27.9,1.1,30.02,SE,136,4.0,4.0,31,0.00,,,0.00,Wunderground v.1.15,2013-02-19 16:10:00,
2013-02-19 11:15:00,28.3,0.8,30.01,SSE,148,3.0,10.0,30,0.00,,,0.00,Wunderground v.1.15,2013-02-19 16:15:00,
2013-02-19 11:20:00,28.2,0.0,30.01,SSE,159,5.0,5.0,29,0.00,,,0.00,Wunderground v.1.15,2013-02-19 16:20:00,
2013-02-19 11:30:00,28.0,0.5,30.01,SE,134,8.0,8.0,30,0.00,,,0.00,Wunderground v.1.15,2013-02-19 16:30:00,
2013-02-19 11:36:00,28.0,0.5,30.00,SSE,149,8.0,8.0,30,0.00,,,0.00,Wunderground v.1.15,2013-02-19 16:36:00,
2013-02-19 11:40:00,28.0,-0.2,30.00,SE,141,8.0,9.0,29,0.00,,,0.00,Wunderground v.1.15,2013-02-19 16:40:00,
2013-02-19 11:46:00,28.3,2.2,30.00,ESE,123,8.0,9.0,32,0.00,,,0.00,Wunderground v.1.15,2013-02-19 16:46:00,
2013-02-19 11:56:00,28.1,1.3,30.00,SE,133,9.0,9.0,31,0.00,,,0.00,Wunderground v.1.15,2013-02-19 16:56:00,
2013-02-19 12:01:00,28.2,1.4,30.00,SSE,151,9.0,9.0,31,0.00,,,0.00,Wunderground v.1.15,2013-02-19 17:01:00,
2013-02-19 12:06:00,28.4,2.2,29.99,SE,137,8.0,9.0,32,0.00,,,0.00,Wunderground v.1.15,2013-02-19 17:06:00,
2013-02-19 12:11:00,28.6,3.7,29.98,ESE,119,6.0,6.0,34,0.00,,,0.00,Wunderground v.1.15,2013-02-19 17:11:00,
2013-02-19 12:16:00,29.1,2.9,29.98,SSE,157,5.0,6.0,32,0.00,,,0.00,Wunderground v.1.15,2013-02-19 17:16:00,
2013-02-19 12:20:00,29.6,3.3,29.97,ESE,115,5.0,7.0,32,0.00,,,0.00,Wunderground v.1.15,2013-02-19 17:20:00,
2013-02-19 12:25:00,29.9,4.2,29.96,SE,126,6.0,9.0,33,0.00,,,0.00,Wunderground v.1.15,2013-02-19 17:25:00,
2013-02-19 12:30:00,30.1,3.7,29.95,SE,131,6.0,9.0,32,0.00,,,0.00,Wunderground v.1.15,2013-02-19 17:30:00,
2013-02-19 12:36:00,30.1,5.1,29.95,SE,137,7.0,9.0,34,0.00,,,0.00,Wunderground v.1.15,2013-02-19 17:36:00,
2013-02-19 12:45:00,30.4,4.7,29.95,SE,138,7.0,8.0,33,0.00,,,0.00,Wunderground v.1.15,2013-02-19 17:45:00,
2013-02-19 12:51:00,30.7,4.3,29.95,SE,131,7.0,7.0,32,0.00,,,0.00,Wunderground v.1.15,2013-02-19 17:51:00,
2013-02-19 12:55:00,31.1,5.3,29.95,ESE,118,6.0,7.0,33,0.00,,,0.00,Wunderground v.1.15,2013-02-19 17:55:00,
2013-02-19 13:05:00,31.8,6.6,29.94,ESE,123,5.0,6.0,34,0.00,,,0.00,Wunderground v.1.15,2013-02-19 18:05:00,
2013-02-19 13:10:00,32.2,5.6,29.94,East,80,4.0,4.0,32,0.00,,,0.00,Wunderground v.1.15,2013-02-19 18:10:00,
2013-02-19 13:16:00,32.5,7.8,29.93,ESE,109,3.0,4.0,35,0.00,,,0.00,Wunderground v.1.15,2013-02-19 18:16:00,
2013-02-19 13:21:00,32.7,6.0,29.92,ESE,119,4.0,7.0,32,0.00,,,0.00,Wunderground v.1.15,2013-02-19 18:21:00,
2013-02-19 13:26:00,33.0,7.6,29.91,SE,142,4.0,7.0,34,0.00,,,0.00,Wunderground v.1.15,2013-02-19 18:26:00,
2013-02-19 13:31:00,33.3,7.2,29.90,ESE,106,5.0,5.0,33,0.00,,,0.00,Wunderground v.1.15,2013-02-19 18:31:00,
2013-02-19 13:40:00,34.0,8.5,29.89,East,85,4.0,4.0,34,0.00,,,0.00,Wunderground v.1.15,2013-02-19 18:40:00,
2013-02-19 13:45:00,34.7,9.1,29.88,SE,146,3.0,4.0,34,0.00,,,0.00,Wunderground v.1.15,2013-02-19 18:45:00,
2013-02-19 13:51:00,35.0,8.7,29.89,SE,132,2.0,10.0,33,0.00,,,0.00,Wunderground v.1.15,2013-02-19 18:51:00,
2013-02-19 13:56:00,34.8,9.2,29.88,SE,126,4.0,10.0,34,0.00,,,0.00,Wunderground v.1.15,2013-02-19 18:56:00,
2013-02-19 14:00:00,34.6,9.7,29.87,SE,130,7.0,7.0,35,0.00,,,0.00,Wunderground v.1.15,2013-02-19 19:00:00,
2013-02-19 14:05:00,34.2,9.4,29.87,SSE,153,7.0,9.0,35,0.00,,,0.00,Wunderground v.1.15,2013-02-19 19:05:00,
2013-02-19 14:11:00,34.4,10.2,29.87,SE,134,7.0,7.0,36,0.00,,,0.00,Wunderground v.1.15,2013-02-19 19:11:00,
2013-02-19 14:16:00,34.6,11.0,29.87,SE,145,6.0,7.0,37,0.00,,,0.00,Wunderground v.1.15,2013-02-19 19:16:00,
2013-02-19 14:20:00,34.7,11.0,29.86,SE,126,5.0,5.0,37,0.00,,,0.00,Wunderground v.1.15,2013-02-19 19:20:00,
2013-02-19 14:36:00,34.9,11.8,29.86,ESE,111,6.0,8.0,38,0.00,,,0.00,Wunderground v.1.15,2013-02-19 19:36:00,
2013-02-19 14:41:00,34.9,11.2,29.85,SE,134,6.0,8.0,37,0.00,,,0.00,Wunderground v.1.15,2013-02-19 19:41:00,
2013-02-19 14:50:00,35.2,12.1,29.84,East,96,4.0,5.0,38,0.00,,,0.00,Wunderground v.1.15,2013-02-19 19:50:00,
2013-02-19 14:56:00,35.2,12.7,29.83,ESE,106,4.0,4.0,39,0.00,,,0.00,Wunderground v.1.15,2013-02-19 19:56:00,
2013-02-19 15:00:00,35.3,12.8,29.83,SE,132,3.0,5.0,39,0.00,,,0.00,Wunderground v.1.15,2013-02-19 20:00:00,
2013-02-19 15:05:00,35.5,13.5,29.83,East,93,4.0,6.0,40,0.00,,,0.00,Wunderground v.1.15,2013-02-19 20:05:00,
2013-02-19 15:11:00,35.7,13.1,29.83,South,180,5.0,5.0,39,0.00,,,0.00,Wunderground v.1.15,2013-02-19 20:11:00,
2013-02-19 15:15:00,35.9,13.9,29.83,SSE,165,5.0,5.0,40,0.00,,,0.00,Wunderground v.1.15,2013-02-19 20:15:00,
2013-02-19 15:20:00,35.9,13.9,29.83,ESE,113,6.0,7.0,40,0.00,,,0.00,Wunderground v.1.15,2013-02-19 20:20:00,
2013-02-19 15:26:00,36.1,14.6,29.83,SE,140,7.0,10.0,41,0.00,,,0.00,Wunderground v.1.15,2013-02-19 20:26:00,
2013-02-19 15:30:00,36.3,14.8,29.83,ESE,123,8.0,8.0,41,0.00,,,0.00,Wunderground v.1.15,2013-02-19 20:30:00,
2013-02-19 15:35:00,36.4,15.5,29.82,ESE,115,7.0,8.0,42,0.00,,,0.00,Wunderground v.1.15,2013-02-19 20:35:00,
2013-02-19 15:41:00,36.7,15.2,29.82,SE,145,5.0,5.0,41,0.00,,,0.00,Wunderground v.1.15,2013-02-19 20:41:00,
2013-02-19 15:46:00,36.9,15.9,29.82,East,87,5.0,5.0,42,0.00,,,0.00,Wunderground v.1.15,2013-02-19 20:46:00,
2013-02-19 15:50:00,37.3,16.8,29.82,East,96,5.0,6.0,43,0.00,,,0.00,Wunderground v.1.15,2013-02-19 20:50:00,
2013-02-19 15:56:00,37.5,17.5,29.81,East,101,5.0,13.0,44,0.00,,,0.00,Wunderground v.1.15,2013-02-19 20:56:00,
2013-02-19 16:01:00,37.7,17.7,29.80,ESE,119,5.0,5.0,44,0.00,,,0.00,Wunderground v.1.15,2013-02-19 21:01:00,
2013-02-19 16:05:00,37.9,18.9,29.80,NE,53,4.0,5.0,46,0.00,,,0.00,Wunderground v.1.15,2013-02-19 21:05:00,
2013-02-19 16:10:00,38.0,19.5,29.80,ESE,117,4.0,4.0,47,0.00,,,0.00,Wunderground v.1.15,2013-02-19 21:10:00,
2013-02-19 16:15:00,38.2,19.2,29.80,ESE,106,5.0,8.0,46,0.00,,,0.00,Wunderground v.1.15,2013-02-19 21:15:00,
2013-02-19 16:21:00,38.1,20.1,29.80,SE,142,5.0,6.0,48,0.00,,,0.00,Wunderground v.1.15,2013-02-19 21:21:00,
2013-02-19 16:30:00,38.0,20.0,29.80,SE,128,5.0,5.0,48,0.00,,,0.00,Wunderground v.1.15,2013-02-19 21:30:00,
2013-02-19 16:35:00,38.0,20.0,29.80,ESE,116,5.0,5.0,48,0.00,,,0.00,Wunderground v.1.15,2013-02-19 21:35:00,
2013-02-19 16:40:00,38.0,19.5,29.80,SE,133,5.0,5.0,47,0.00,,,0.00,Wunderground v.1.15,2013-02-19 21:40:00,
2013-02-19 16:45:00,37.9,20.4,29.80,ESE,105,3.0,5.0,49,0.00,,,0.00,Wunderground v.1.15,2013-02-19 21:45:00,
2013-02-19 16:50:00,37.9,20.4,29.79,ESE,109,3.0,9.0,49,0.00,,,0.00,Wunderground v.1.15,2013-02-19 21:50:00,
2013-02-19 16:55:00,37.9,20.4,29.79,East,94,3.0,9.0,49,0.00,,,0.00,Wunderground v.1.15,2013-02-19 21:55:00,
2013-02-19 17:01:00,37.7,21.2,29.79,ESE,115,4.0,5.0,51,0.00,,,0.00,Wunderground v.1.15,2013-02-19 22:01:00,
2013-02-19 17:05:00,37.7,20.7,29.80,SE,144,5.0,5.0,50,0.00,,,0.00,Wunderground v.1.15,2013-02-19 22:05:00,
2013-02-19 17:10:00,37.7,20.7,29.79,ESE,104,5.0,5.0,50,0.00,,,0.00,Wunderground v.1.15,2013-02-19 22:10:00,
2013-02-19 17:16:00,37.6,21.1,29.79,East,93,4.0,5.0,51,0.00,,,0.00,Wunderground v.1.15,2013-02-19 22:16:00,
2013-02-19 17:31:00,37.4,22.7,29.79,ESE,106,6.0,6.0,55,0.00,,,0.00,Wunderground v.1.15,2013-02-19 22:31:00,
2013-02-19 17:36:00,37.2,22.9,29.79,ESE,122,5.0,7.0,56,0.00,,,0.00,Wunderground v.1.15,2013-02-19 22:36:00,
2013-02-19 17:40:00,37.2,23.4,29.79,ESE,110,6.0,6.0,57,0.00,,,0.00,Wunderground v.1.15,2013-02-19 22:40:00,
2013-02-19 17:46:00,37.1,23.7,29.78,ESE,105,7.0,7.0,58,0.00,,,0.00,Wunderground v.1.15,2013-02-19 22:46:00,
2013-02-19 17:51:00,37.0,24.0,29.79,ESE,110,6.0,7.0,59,0.00,,,0.00,Wunderground v.1.15,2013-02-19 22:51:00,
2013-02-19 17:56:00,36.9,24.3,29.79,ESE,121,5.0,10.0,60,0.00,,,0.00,Wunderground v.1.15,2013-02-19 22:56:00,
2013-02-19 18:00:00,36.8,24.2,29.78,SE,133,6.0,6.0,60,0.00,,,0.00,Wunderground v.1.15,2013-02-19 23:00:00,
2013-02-19 18:05:00,36.8,24.2,29.78,ENE,78,6.0,6.0,60,0.00,,,0.00,Wunderground v.1.15,2013-02-19 23:05:00,
2013-02-19 18:10:00,36.7,24.5,29.78,SE,132,5.0,5.0,61,0.00,,,0.00,Wunderground v.1.15,2013-02-19 23:10:00,
2013-02-19 18:16:00,36.5,24.7,29.78,ESE,106,5.0,5.0,62,0.00,,,0.00,Wunderground v.1.15,2013-02-19 23:16:00,
2013-02-19 18:21:00,36.4,24.2,29.78,East,97,5.0,5.0,61,0.00,,,0.00,Wunderground v.1.15,2013-02-19 23:21:00,
2013-02-19 18:31:00,36.1,24.3,29.77,SE,134,5.0,5.0,62,0.00,,,0.00,Wunderground v.1.15,2013-02-19 23:31:00,
2013-02-19 18:36:00,35.9,24.5,29.77,SE,146,5.0,8.0,63,0.00,,,0.00,Wunderground v.1.15,2013-02-19 23:36:00,
2013-02-19 18:41:00,35.8,24.8,29.76,ESE,103,5.0,8.0,64,0.00,,,0.00,Wunderground v.1.15,2013-02-19 23:41:00,
2013-02-19 18:46:00,35.7,25.1,29.76,SE,128,5.0,5.0,65,0.00,,,0.00,Wunderground v.1.15,2013-02-19 23:46:00,
2013-02-19 18:55:00,35.4,25.2,29.76,SE,136,4.0,5.0,66,0.00,,,0.00,Wunderground v.1.15,2013-02-19 23:55:00,
2013-02-19 19:01:00,35.4,25.2,29.76,SE,131,4.0,7.0,66,0.00,,,0.00,Wunderground v.1.15,2013-02-20 00:01:00,
2013-02-19 19:06:00,35.4,25.2,29.75,ESE,118,5.0,7.0,66,0.00,,,0.00,Wunderground v.1.15,2013-02-20 00:06:00,
2013-02-19 19:11:00,35.3,25.4,29.75,ESE,105,3.0,3.0,67,0.00,,,0.00,Wunderground v.1.15,2013-02-20 00:11:00,
2013-02-19 19:20:00,35.2,25.7,29.75,ESE,111,3.0,3.0,68,0.00,,,0.00,Wunderground v.1.15,2013-02-20 00:20:00,
2013-02-19 19:31:00,35.0,25.9,29.74,East,94,3.0,3.0,69,0.00,,,0.00,Wunderground v.1.15,2013-02-20 00:31:00,
2013-02-19 19:36:00,35.0,26.2,29.74,ENE,67,2.0,3.0,70,0.00,,,0.00,Wunderground v.1.15,2013-02-20 00:36:00,
2013-02-19 19:40:00,34.9,26.1,29.74,ENE,67,2.0,2.0,70,0.00,,,0.00,Wunderground v.1.15,2013-02-20 00:40:00,
2013-02-19 19:45:00,34.9,26.4,29.74,East,86,2.0,6.0,71,0.00,,,0.00,Wunderground v.1.15,2013-02-20 00:45:00,
2013-02-19 19:51:00,34.8,26.4,29.73,ENE,70,2.0,4.0,71,0.00,,,0.00,Wunderground v.1.15,2013-02-20 00:51:00,
2013-02-19 20:06:00,34.7,26.6,29.72,East,80,2.0,2.0,72,0.00,,,0.00,Wunderground v.1.15,2013-02-20 01:06:00,
2013-02-19 20:16:00,34.6,26.8,29.72,ESE,107,1.0,1.0,73,0.00,,,0.00,Wunderground v.1.15,2013-02-20 01:16:00,
2013-02-19 20:26:00,34.3,27.5,29.72,SE,135,1.0,4.0,76,0.00,,,0.00,Wunderground v.1.15,2013-02-20 01:26:00,
2013-02-19 20:30:00,33.7,28.2,29.72,ESE,109,3.0,3.0,80,0.00,,,0.00,Wunderground v.1.15,2013-02-20 01:30:00,
2013-02-19 20:35:00,33.2,28.3,29.72,ESE,122,3.0,4.0,82,0.00,,,0.00,Wunderground v.1.15,2013-02-20 01:35:00,
2013-02-19 20:40:00,32.8,28.8,29.71,ESE,122,2.0,2.0,85,0.00,,,0.00,Wunderground v.1.15,2013-02-20 01:40:00,
2013-02-19 20:46:00,32.5,28.8,29.71,SE,136,2.0,2.0,86,0.00,,,0.00,Wunderground v.1.15,2013-02-20 01:46:00,
2013-02-19 20:51:00,32.3,28.9,29.71,SE,136,1.0,1.0,87,0.00,,,0.00,Wunderground v.1.15,2013-02-20 01:51:00,
2013-02-19 20:56:00,32.1,28.9,29.70,ESE,112,1.0,1.0,88,0.00,,,0.00,Wunderground v.1.15,2013-02-20 01:56:00,
2013-02-19 21:01:00,32.0,30.7,29.70,ESE,112,1.0,1.0,95,0.00,,,0.00,Wunderground v.1.15,2013-02-20 02:01:00,
2013-02-19 21:06:00,32.0,29.1,29.69,ESE,112,0.0,1.0,89,0.00,,,0.00,Wunderground v.1.15,2013-02-20 02:06:00,
2013-02-19 21:11:00,32.0,29.1,29.69,ESE,112,0.0,0.0,89,0.00,,,0.00,Wunderground v.1.15,2013-02-20 02:11:00,
2013-02-19 21:15:00,32.0,29.4,29.69,ESE,112,0.0,1.0,90,0.00,,,0.00,Wunderground v.1.15,2013-02-20 02:15:00,
2013-02-19 21:40:00,32.3,29.7,29.67,ESE,112,0.0,0.0,90,0.00,,,0.01,Wunderground v.1.15,2013-02-20 02:40:00,
2013-02-19 21:45:00,32.5,29.9,29.67,ESE,112,0.0,0.0,90,0.00,,,0.01,Wunderground v.1.15,2013-02-20 02:45:00,
2013-02-19 21:50:00,32.6,30.0,29.67,ESE,112,0.0,1.0,90,0.00,,,0.01,Wunderground v.1.15,2013-02-20 02:50:00,
2013-02-19 21:56:00,32.6,30.0,29.67,ESE,112,0.0,1.0,90,0.00,,,0.01,Wunderground v.1.15,2013-02-20 02:56:00,
2013-02-19 22:01:00,32.6,30.0,29.66,ESE,112,1.0,1.0,90,0.00,,,0.01,Wunderground v.1.15,2013-02-20 03:01:00,
2013-02-19 22:11:00,32.5,29.9,29.65,ESE,112,0.0,1.0,90,0.00,,,0.02,Wunderground v.1.15,2013-02-20 03:11:00,
2013-02-19 22:16:00,32.4,30.1,29.65,ESE,112,0.0,1.0,91,0.00,,,0.02,Wunderground v.1.15,2013-02-20 03:16:00,
2013-02-19 22:21:00,32.4,30.1,29.65,ESE,112,0.0,0.0,91,0.00,,,0.02,Wunderground v.1.15,2013-02-20 03:21:00,
2013-02-19 22:30:00,32.4,30.1,29.63,ESE,112,0.0,0.0,91,0.00,,,0.02,Wunderground v.1.15,2013-02-20 03:30:00,
2013-02-19 22:35:00,32.3,30.0,29.64,ESE,112,0.0,1.0,91,0.00,,,0.03,Wunderground v.1.15,2013-02-20 03:35:00,
2013-02-19 22:40:00,32.2,29.9,29.64,ESE,112,0.0,0.0,91,0.00,,,0.03,Wunderground v.1.15,2013-02-20 03:40:00,
2013-02-19 22:46:00,32.1,29.8,29.64,ESE,112,0.0,0.0,91,0.00,,,0.03,Wunderground v.1.15,2013-02-20 03:46:00,
2013-02-19 22:50:00,32.1,30.0,29.63,ESE,112,0.0,0.0,92,0.00,,,0.03,Wunderground v.1.15,2013-02-20 03:50:00,
2013-02-19 22:55:00,32.2,29.9,29.62,ESE,112,0.0,0.0,91,0.00,,,0.03,Wunderground v.1.15,2013-02-20 03:55:00,
2013-02-19 23:05:00,32.0,29.9,29.62,ESE,112,0.0,0.0,92,0.00,,,0.03,Wunderground v.1.15,2013-02-20 04:05:00,
2013-02-19 23:10:00,32.1,30.0,29.62,ESE,112,0.0,0.0,92,0.00,,,0.03,Wunderground v.1.15,2013-02-20 04:10:00,
2013-02-19 23:15:00,32.2,30.1,29.63,ESE,112,0.0,0.0,92,0.00,,,0.03,Wunderground v.1.15,2013-02-20 04:15:00,
2013-02-19 23:20:00,32.3,30.2,29.62,ESE,112,0.0,0.0,92,0.00,,,0.04,Wunderground v.1.15,2013-02-20 04:20:00,
2013-02-19 23:31:00,32.2,29.9,29.63,ESE,112,0.0,0.0,91,0.00,,,0.04,Wunderground v.1.15,2013-02-20 04:31:00,
2013-02-19 23:36:00,32.1,30.0,29.63,ESE,112,0.0,0.0,92,0.00,,,0.04,Wunderground v.1.15,2013-02-20 04:36:00,
2013-02-19 23:45:00,32.2,30.1,29.62,ESE,112,0.0,0.0,92,0.00,,,0.05,Wunderground v.1.15,2013-02-20 04:45:00,
2013-02-19 23:50:00,32.3,30.2,29.62,ESE,112,0.0,0.0,92,0.00,,,0.05,Wunderground v.1.15,2013-02-20 04:50:00,
2013-02-19 23:55:00,32.3,30.0,29.61,ESE,112,0.0,0.0,91,0.00,,,0.05,Wunderground v.1.15,2013-02-20 04:55:00,